Weather History for Shoreham, United Kingdom

Change the Weather History Date:

Sunday, October 6, 2013

  Actual Average Record
Temperature  
Mean Temperature 56 °F -  
Max Temperature 64 °F 56 °F 64 °F (1997)
Min Temperature 49 °F 48 °F 37 °F (1999)
Degree Days  
Heating Degree Days 8    
Growing Degree Days 6 (Base 50)    
Moisture  
Dew Point 55 °F    
Average Humidity 81    
Maximum Humidity 98    
Minimum Humidity 59    
Precipitation  
Precipitation 0.00 in - - ()
Sea Level Pressure  
Sea Level Pressure 30.29 in    
Wind  
Wind Speed 7 mph ()    
Max Wind Speed 13 mph    
Max Gust Speed -    
Visibility 6.2 miles    
Events      
Averages and records for this station are not official NWS values.
T = Trace of Precipitation, MM = Missing Value Source: Averaged Metar Reports

Daily Weather History Graph

Daily Weather History Graph

Search for Another Location

Airport:

Trip Planner

Search our weather history database for the weather conditions in past years. The results will help you decide how hot, cold, wet, or windy it might be!

Date:

Astronomy

Oct. 06, 2013 Rise Set
Actual Time 7:09 AM BST 6:27 PM BST
Civil Twilight 6:36 AM BST 7:00 PM BST
Nautical Twilight 5:58 AM BST 7:38 PM BST
Astronomical Twilight 5:19 AM BST 8:17 PM BST
Moon 8:51 AM BST (10/6) 7:01 PM BST (10/6)
Length of Visible Light 12h 23m
Length of Day
11h 18m
New Moon, 2% of the Moon is Illuminated
Oct 6
New Moon
Oct 12
First Quarter
Oct 19
Full
Oct 27
Last Quarter
Nov 3
New

Hourly Weather History & Observations

Time (BST) Temp. Dew Point Humidity Pressure Visibility Wind Dir Wind Speed Gust Speed Precip Events Conditions
12:50 AM 54 °F 52 °F 90% 30.26 in - North 6.9 mph - -  
6:50 AM 49 °F 49 °F 98% 30.29 in - North 8.1 mph - -  
9:50 AM 56 °F 52 °F 83% 30.31 in - North 5.8 mph - -  
9:50 AM 55.4 °F 51.8 °F 88% 30.30 in - North 5.8 mph - N/A   Clear
10:20 AM 59.0 °F 51.8 °F 77% 30.30 in - North 3.5 mph - N/A   Clear
10:50 AM 62.6 °F 55.4 °F 77% 30.30 in 6.2 mi SSW 2.3 mph - N/A   Partly Cloudy
11:20 AM 62.6 °F 55.4 °F 77% 30.30 in 6.2 mi SSW 6.9 mph - N/A   Partly Cloudy
11:50 AM 62.6 °F 53.6 °F 72% 30.30 in 6.2 mi SW 9.2 mph - N/A   Partly Cloudy
12:20 PM 64.4 °F 53.6 °F 68% 30.30 in 6.2 mi SW 9.2 mph - N/A   Scattered Clouds
12:50 PM 64 °F 53 °F 59% 30.32 in - SW 10.4 mph - -  
12:50 PM 64.4 °F 53.6 °F 68% 30.30 in 6.2 mi SW 10.4 mph - N/A   Scattered Clouds
1:20 PM 64.4 °F 55.4 °F 73% 30.30 in 6.2 mi SW 11.5 mph - N/A   Scattered Clouds
1:50 PM 62.6 °F 55.4 °F 77% 30.30 in 6.2 mi SW 12.7 mph - N/A   Scattered Clouds
2:20 PM 62.6 °F 57.2 °F 82% 30.30 in 6.2 mi SW 12.7 mph - N/A   Scattered Clouds
2:50 PM 64.4 °F 57.2 °F 77% 30.30 in 6.2 mi SW 12.7 mph - N/A   Scattered Clouds
3:20 PM 62.6 °F 57.2 °F 82% 30.30 in 6.2 mi SW 10.4 mph - N/A   Partly Cloudy
3:50 PM 63 °F 57 °F 76% 30.30 in - SW 11.5 mph - -  
3:50 PM 62.6 °F 57.2 °F 82% 30.30 in 6.2 mi SW 12.7 mph - N/A   Partly Cloudy
4:20 PM 62.6 °F 57.2 °F 82% 30.27 in 6.2 mi SW 12.7 mph - N/A   Partly Cloudy
4:50 PM 62.6 °F 57.2 °F 82% 30.27 in 6.2 mi WSW 12.7 mph - N/A   Partly Cloudy
5:20 PM 60.8 °F 57.2 °F 88% 30.27 in 6.2 mi WSW 9.2 mph - N/A   Partly Cloudy
5:50 PM 60.8 °F 57.2 °F 88% 30.27 in 6.2 mi SW 9.2 mph - N/A   Partly Cloudy
6:20 PM 59.0 °F 55.4 °F 88% 30.27 in - WSW 8.1 mph - N/A   Clear
6:50 PM 58 °F 55 °F 85% 30.30 in - WSW 6.9 mph - -  
6:50 PM 59.0 °F 55.4 °F 88% 30.30 in - WSW 8.1 mph - N/A   Clear
9:50 PM 52 °F 51 °F 95% 30.32 in - West 2.3 mph - -